Weather in Vila do Bispo

Portugal     37°04′55″N   8°54′31″W
temp.,
°C
wind,
m/s
gust,
m/s
humid.,
%
clouds,
%
prec.,
mm/h
press.,
hPa
HPBL,
m
25 february, thu
thu2500:00+15s238855 0.3 1025108
03:00+15wnw348438 0.1 1024268
06:00+15nnw778969 0.1 1024434
09:00+14nnw898565 0.1 1025600
12:00+15nnw898065 0.1 1025600
15:00+14n89822 0.0 1023552
18:00+14nnw998651 0.3 1023371
21:00+13n7791100 0.8 1024311
26 february, fri
fri2600:00+13n6688100 1.2 1024294
03:00+14nne5584100 0.3 1023202
06:00+14e458289 0.4 1023307
09:00+14e678396 0.3 1024501
12:00+15ese9108498 1.4 1024662
15:00+15e7884100 0.8 1024596
18:00+15e6783100 0.9 1024427
21:00+15nne5683100 0.1 1025286
27 february, sat
sat2700:00+15n5586100 0.1 1024204
03:00+15ne4581100 0.0 1024180
06:00+15ne4576100 0.0 1022169
09:00+15ne3371100 0.0 1023114
12:00+15se457699 0.0 1023253
15:00+15ese5679100 0.0 1021326
18:00+15ese3476100 0.0 1020259
21:00+15ne2274100 0.0 1021138
28 february, sun
sun2800:00+14ene4480100 0.0 1020208
03:00+15ene5777100 0.0 1019606
06:00+15e10138087 0.0 1018881
09:00+15e912739 0.0 1018954
12:00+15e9127337 0.0 10181125
15:00+16e9126671 0.0 10161061
18:00+16e7127885 0.0 1016904
21:00+15ene7117753 0.0 1017875
1 march, mon
mon100:00+15e8147543 0.0 1017986
03:00+15ene687321 0.0 1016790
06:00+14ene577211 0.0 1016562
09:00+14ne33702 0.0 1017202
12:00+15e45743 0.0 1018438
15:00+15e44784 0.0 1018486
18:00+15nne337615 0.0 1019399
21:00+15nne34760 0.0 1021224